Theta_e
313 313 314 314 314 316 316 317 317 317 317 317 318 316 315 314 314 317 317 316 317 315 315 316 316 316 317 317 318 319 320 321 324 327 332 334 332 331 334 338 338 337 337 339 341 340 337 338 339 338 338 338 337 336 336 335 335 335 335 335 336 336 336 335 334 335 335 333 333 333 333 333 333 331 330 330 331 331 330 332 334 333 332 331 329 331
313 313 314 315 315 316 317 318 318 318 319 318 316 315 314 314 314 317 318 316 317 315 315 316 315 316 317 317 318 319 320 321 323 325 329 331 331 332 333 336 336 335 335 336 340 340 337 337 338 338 338 337 336 336 336 335 336 336 335 336 336 337 337 336 335 335 334 334 333 333 333 333 332 331 330 329 329 331 332 333 334 332 330 330 327 328
314 313 314 316 316 316 318 319 319 319 320 318 316 314 313 314 315 316 318 317 316 316 315 316 315 316 317 317 318 319 320 321 321 323 325 326 328 329 331 335 335 337 338 337 337 338 339 338 337 338 339 338 336 335 335 335 335 335 335 336 337 337 336 335 335 334 333 333 334 333 332 333 332 331 330 330 329 330 332 332 332 331 328 328 328 328
315 314 315 316 316 317 319 320 320 319 319 318 316 314 313 315 315 314 316 318 316 316 315 316 316 316 318 317 318 319 319 320 320 320 323 324 327 327 328 333 334 337 340 339 337 338 339 338 337 338 339 339 337 335 334 335 336 336 335 336 337 337 335 335 335 333 333 333 333 333 332 333 332 330 329 329 328 328 330 331 331 330 328 329 330 329
315 316 316 316 316 318 319 319 319 318 317 317 317 316 314 315 315 314 316 317 317 317 317 316 314 314 317 317 318 319 319 320 320 320 320 322 325 327 327 329 332 335 340 341 338 337 340 340 339 339 339 339 339 336 335 336 337 338 337 337 338 338 335 335 334 333 333 333 332 332 333 332 331 331 329 329 329 326 329 331 331 330 329 329 328 328
315 317 317 316 317 317 318 318 318 317 316 316 317 317 316 316 316 316 317 316 314 314 316 316 312 312 315 316 317 318 318 318 319 320 320 320 321 324 326 327 331 334 338 340 339 338 341 342 341 340 340 340 340 338 336 337 338 339 339 339 338 338 336 335 335 334 333 333 332 332 332 331 331 330 329 329 327 325 329 332 332 330 329 328 326 327
315 317 317 316 317 316 316 316 316 317 315 314 317 317 317 317 317 316 315 314 312 312 316 317 312 312 314 316 317 317 318 318 319 320 319 320 320 320 325 326 330 333 334 335 337 339 342 343 343 342 341 341 341 340 339 339 340 340 339 338 338 337 335 335 334 333 333 333 332 332 331 331 331 329 327 328 326 325 330 332 331 329 326 326 324 325
316 317 317 316 316 315 314 314 315 317 315 314 316 317 317 316 316 315 314 313 313 314 316 317 315 312 312 315 318 318 318 317 318 319 319 320 319 319 323 325 326 331 332 331 335 339 340 342 344 343 342 342 341 341 341 341 341 340 338 336 336 336 335 334 334 333 333 333 332 332 331 330 331 328 328 330 329 328 331 331 330 327 324 325 324 324
317 317 318 316 315 315 314 315 315 316 315 315 316 316 316 316 315 315 314 313 314 314 312 314 316 313 311 314 318 318 318 318 318 319 319 319 319 319 321 323 324 330 333 334 335 337 337 339 342 343 343 342 342 341 340 340 340 339 336 335 335 335 335 335 334 334 333 332 332 331 330 330 331 330 329 329 328 329 330 330 330 327 326 327 326 326
317 317 318 316 315 315 315 316 316 316 315 315 316 316 315 315 315 315 315 313 314 313 311 313 315 313 312 314 315 316 317 318 318 319 321 322 322 321 319 322 321 325 333 335 335 335 336 337 340 342 343 341 339 338 338 337 338 336 334 333 334 334 335 336 335 333 329 330 332 330 328 329 331 331 329 326 327 329 330 329 328 327 328 328 327 327
317 317 317 316 316 316 315 316 317 316 316 316 316 315 314 315 315 315 315 314 312 312 312 314 314 313 313 313 316 319 319 320 322 325 327 327 326 325 322 323 321 321 331 334 332 332 335 338 339 341 341 335 332 333 333 332 334 334 332 331 332 333 334 335 334 332 328 328 330 329 329 329 329 329 326 325 328 329 329 329 327 327 328 328 327 327
316 316 316 316 317 317 315 316 317 317 316 316 315 314 313 313 314 314 314 314 313 312 313 314 314 313 312 313 319 324 324 325 327 327 327 328 328 327 324 323 321 327 333 333 331 331 334 339 340 340 337 332 331 333 331 329 331 331 329 327 330 330 330 332 334 333 329 327 327 328 329 328 327 326 323 326 329 329 328 328 327 327 328 328 328 327
315 316 316 316 316 316 316 315 316 317 316 315 315 313 312 312 314 314 313 313 313 313 314 315 314 313 313 316 322 325 325 326 327 326 326 328 328 326 326 324 323 329 331 329 331 334 337 341 340 339 336 332 331 331 331 331 332 331 328 327 328 327 326 329 332 333 330 328 328 329 329 327 326 324 323 326 328 328 329 328 328 328 328 328 327 327
315 316 315 315 316 316 316 315 314 315 315 314 313 312 312 313 314 316 314 314 314 314 314 315 315 313 313 319 326 325 325 327 328 328 328 330 329 327 327 326 324 329 331 329 333 337 339 340 339 337 336 334 332 331 331 332 332 332 331 330 329 328 326 326 330 332 331 329 328 329 328 325 324 323 325 328 327 327 329 329 329 328 328 329 327 328
314 315 316 315 315 316 315 315 315 315 314 314 314 313 313 313 314 315 314 314 314 314 314 316 315 313 314 321 327 327 326 328 329 330 331 331 331 330 329 328 328 332 333 334 337 339 338 338 339 337 336 336 335 333 331 331 331 332 332 332 331 329 327 327 329 332 332 330 328 328 327 324 322 323 326 328 327 327 329 329 329 329 328 328 327 328
314 314 316 316 316 316 315 315 316 315 314 315 315 313 313 313 314 314 314 315 315 314 314 315 315 317 321 325 328 327 328 328 329 331 333 332 333 332 331 331 332 332 332 334 336 337 336 337 338 336 335 336 335 333 331 331 330 331 331 331 331 330 329 327 329 332 331 330 328 327 326 323 322 324 326 328 328 326 328 329 328 328 328 327 327 327
314 315 316 316 317 316 316 316 316 315 315 315 315 313 313 316 316 314 314 315 316 315 315 314 315 319 322 324 326 327 328 327 327 330 332 331 332 334 334 334 335 334 333 333 334 336 336 335 337 336 334 335 335 333 332 332 332 332 331 331 331 330 329 327 328 331 331 330 328 327 325 322 322 324 325 328 327 323 326 329 328 328 327 327 327 327
315 315 315 316 316 316 317 317 316 316 316 315 314 314 315 316 316 315 315 315 316 315 314 313 313 315 318 321 325 328 328 328 328 328 330 331 331 331 331 331 333 334 333 334 335 336 335 335 336 336 335 336 336 334 332 332 332 332 331 331 331 330 328 327 329 331 330 329 328 326 324 322 323 323 322 327 326 320 325 329 327 327 328 327 327 327
317 314 315 316 315 316 316 316 315 316 316 315 316 316 316 314 314 315 314 315 316 316 315 313 312 315 319 323 325 328 329 329 328 328 328 330 330 329 328 327 329 330 331 334 336 336 335 335 335 335 335 336 335 334 333 332 332 332 331 331 332 331 329 328 330 332 331 329 329 326 322 322 324 322 322 326 325 322 326 329 327 328 328 327 327 326
318 315 315 316 315 315 315 314 313 314 315 315 316 316 316 315 316 315 315 316 316 315 315 313 313 319 324 325 326 328 329 329 329 328 327 329 330 330 329 328 330 332 332 334 335 334 334 334 334 335 335 335 334 333 333 333 332 332 332 332 332 333 331 329 330 333 331 330 329 325 321 322 324 324 324 324 324 325 327 328 327 327 327 327 326 324
318 317 315 316 315 314 314 314 314 314 314 314 314 314 315 316 316 317 316 316 315 315 315 313 315 322 326 326 326 328 328 328 328 328 328 329 330 330 329 330 330 331 332 333 333 333 333 333 333 333 334 334 333 333 333 334 334 333 332 332 332 333 332 331 330 331 331 330 328 325 322 323 323 324 325 323 322 325 327 327 327 327 326 327 326 324
316 317 315 315 315 314 313 314 314 314 315 315 314 314 314 315 316 316 316 316 316 316 316 315 317 323 326 324 325 327 327 328 328 328 329 329 328 328 328 328 329 329 330 331 331 332 332 332 332 333 333 332 333 333 333 333 334 333 332 331 332 332 332 331 331 330 330 329 327 324 322 323 321 321 323 323 321 324 326 327 326 325 326 327 326 325
317 317 315 315 316 316 315 315 316 316 317 317 316 316 316 315 316 315 315 317 317 316 316 314 317 323 326 324 326 328 328 328 328 328 329 327 326 326 326 326 326 327 328 329 329 330 331 331 331 331 332 331 331 332 332 333 333 333 332 332 332 332 332 332 331 331 331 329 326 322 323 325 323 319 322 322 320 323 326 327 326 325 325 326 326 326
318 318 316 315 316 317 317 317 317 317 317 317 317 318 317 316 317 317 317 319 318 316 316 316 318 324 325 324 327 329 328 328 327 327 327 326 325 324 323 324 325 326 327 327 327 328 328 329 329 329 329 330 330 330 331 332 332 331 332 332 332 332 332 332 331 331 331 328 324 323 325 327 324 320 321 322 321 324 327 327 326 325 325 325 326 325
317 317 317 316 316 317 318 318 317 317 316 316 317 317 318 318 319 320 321 321 318 316 316 317 320 325 325 325 327 327 326 326 325 324 324 324 324 323 322 322 323 324 325 325 326 326 326 327 327 327 328 329 329 330 331 332 332 332 331 331 332 333 332 331 330 331 330 326 323 325 327 327 327 325 325 325 324 325 326 326 325 325 324 324 324 325
317 317 317 316 317 317 318 318 317 318 317 316 318 319 320 318 318 319 319 319 318 316 317 318 321 325 326 326 326 325 324 323 322 322 321 321 321 321 320 321 321 322 322 322 323 324 324 324 324 325 326 327 328 328 329 330 331 331 331 331 332 332 331 331 330 330 329 325 323 326 328 327 327 328 328 327 325 324 326 326 325 325 324 322 322 324
319 319 319 319 320 319 319 319 319 318 318 318 319 319 319 319 320 321 317 316 318 318 319 322 324 326 327 325 324 322 322 321 320 320 319 319 319 318 318 318 319 320 320 320 320 320 321 322 322 323 324 325 326 327 327 328 328 329 330 331 331 331 331 331 330 328 327 325 326 328 329 327 327 328 327 326 325 324 326 326 324 325 324 323 322 322
319 320 321 322 322 320 318 318 317 318 319 321 321 320 320 320 321 322 320 320 322 319 319 324 327 326 325 323 320 319 319 318 318 318 317 317 317 317 316 316 317 318 318 318 318 318 318 319 319 321 322 323 323 324 325 326 326 327 328 329 330 330 330 330 329 327 325 324 326 328 329 327 328 328 326 325 324 324 324 323 323 324 324 323 322 320
320 320 320 322 321 319 318 319 317 318 320 322 323 323 323 323 323 325 325 324 324 322 320 324 327 326 322 319 317 316 316 316 316 315 315 315 315 315 314 314 314 315 315 316 316 316 317 318 318 319 320 322 322 322 323 323 324 325 326 327 329 329 329 329 328 327 327 325 324 327 328 327 327 327 326 324 324 324 323 323 323 325 324 323 321 319
320 320 320 321 320 319 319 318 317 319 320 321 321 321 322 324 324 325 324 324 325 325 324 324 324 321 317 315 314 314 314 314 314 314 313 313 313 313 312 312 311 312 313 313 314 314 315 317 319 318 319 321 322 323 323 323 323 324 325 325 327 327 328 329 327 327 328 327 326 327 328 327 326 326 326 325 324 324 325 324 325 325 324 322 321 320
319 319 320 320 319 320 320 318 317 320 321 320 318 318 320 322 322 322 322 322 324 325 324 323 322 318 313 313 313 313 313 313 312 312 312 311 311 310 310 309 309 310 311 311 312 312 313 315 318 319 319 320 321 322 323 323 322 323 323 324 325 326 327 327 327 326 328 328 327 327 327 326 326 325 325 326 325 325 325 324 324 324 322 322 321 321
318 319 320 319 319 320 320 319 318 319 320 319 316 315 316 318 320 320 319 319 321 323 324 324 323 319 313 312 312 312 312 311 310 310 310 309 309 308 308 307 307 308 309 309 309 310 311 313 316 318 319 320 321 322 322 322 322 322 323 324 324 325 325 326 327 326 327 327 326 326 326 325 325 324 325 325 324 324 324 324 323 323 322 321 320 319
319 319 319 319 319 319 320 320 319 319 321 319 314 312 314 315 317 319 318 316 317 319 321 321 320 316 313 312 312 311 310 309 308 308 308 308 307 307 306 306 306 306 307 307 307 308 309 311 314 316 317 318 319 320 321 321 321 321 322 323 323 324 324 324 325 325 325 325 325 325 324 324 323 322 322 323 323 323 324 324 323 323 322 320 318 316
319 318 318 319 318 319 321 320 319 320 321 317 311 310 312 313 314 317 316 315 315 316 317 316 315 313 312 310 309 308 307 307 306 305 306 306 306 305 305 305 305 305 305 305 306 307 307 309 311 314 315 317 317 318 318 319 320 320 320 321 322 323 323 323 323 323 323 323 323 323 323 323 323 322 321 322 322 322 322 323 323 321 320 319 317 314
318 317 318 317 317 318 319 320 320 320 316 312 310 309 311 312 313 314 314 313 313 314 314 313 311 310 309 307 305 305 305 304 304 304 304 304 304 305 304 304 303 303 303 304 305 306 306 308 311 313 314 314 315 315 316 317 318 319 319 320 321 321 321 322 322 321 322 321 321 321 322 322 322 321 321 322 321 320 320 320 320 319 319 319 317 315
317 317 317 316 316 317 318 319 320 317 312 311 310 309 310 311 311 313 314 312 310 310 313 312 309 308 307 306 305 305 304 304 303 303 303 303 304 304 304 303 303 303 302 302 303 304 305 307 310 312 313 314 314 314 314 315 316 317 318 318 319 320 320 320 320 320 320 320 320 320 320 320 319 319 320 320 320 320 319 318 318 317 317 318 317 316
317 317 316 316 317 317 317 316 316 314 313 311 310 309 309 309 309 310 313 312 308 309 311 310 308 307 307 306 306 305 306 306 304 303 302 303 303 303 303 302 302 302 302 302 303 304 305 307 310 311 312 314 314 315 314 313 313 315 317 317 318 319 319 319 319 318 319 319 319 319 319 319 319 319 320 319 319 319 319 318 318 317 317 317 317 317
315 316 316 316 316 315 316 315 315 316 315 311 310 309 308 308 307 307 310 312 308 308 309 309 308 307 306 306 306 306 308 309 306 303 302 302 302 302 302 302 302 301 301 301 303 304 305 307 309 310 311 312 313 313 314 313 313 314 316 316 316 317 318 318 318 317 317 317 318 319 319 319 319 319 318 318 317 317 317 317 316 316 316 315 315 316
314 316 316 316 315 314 316 316 315 316 314 310 309 309 309 309 308 307 311 313 309 307 308 308 307 307 307 307 307 307 310 310 306 302 301 301 300 300 300 300 301 302 302 302 302 302 302 303 305 307 308 309 310 311 312 312 313 314 314 314 315 315 316 316 315 315 315 315 316 317 318 318 318 318 318 317 317 317 316 316 316 315 315 316 316 317
315 315 314 315 315 314 315 315 313 312 310 308 308 309 309 309 308 310 316 314 308 307 308 307 307 307 307 307 308 307 308 308 305 302 301 301 301 300 299 299 300 300 301 302 303 302 302 302 302 302 303 303 304 306 308 310 312 313 313 313 313 313 313 313 313 314 314 315 315 316 317 317 317 317 317 317 317 317 317 317 317 317 317 317 317 317
313 313 314 314 314 314 314 314 312 310 308 307 308 309 309 309 311 314 315 310 306 308 308 307 307 307 307 308 307 305 305 304 303 301 301 301 301 301 300 300 301 301 301 301 302 303 303 303 302 301 301 300 300 301 302 304 306 307 307 308 308 308 308 308 310 311 312 313 314 314 315 315 316 316 315 315 315 315 316 316 316 315 315 316 316 316
313 313 313 313 313 313 314 313 312 310 307 307 309 309 309 311 313 311 308 306 307 308 308 307 307 307 307 307 305 303 302 302 302 301 301 301 301 300 300 300 301 301 302 302 302 303 303 303 302 301 301 301 301 300 300 300 300 300 301 301 301 301 302 303 304 305 306 308 309 310 311 312 313 313 313 312 312 312 312 312 313 313 314 314 314 314
311 312 313 312 312 313 313 313 313 311 307 306 308 308 308 309 309 306 304 306 308 308 308 308 307 307 306 305 303 303 302 301 301 301 301 300 300 300 299 299 299 300 300 301 301 302 303 303 303 302 301 300 301 301 301 301 301 300 300 299 298 298 298 299 299 300 301 301 302 303 304 305 306 306 307 307 307 307 308 308 308 308 308 308 308 308
310 311 312 311 310 311 312 310 309 308 306 306 307 307 306 306 305 304 305 306 307 307 307 307 306 306 305 304 303 302 302 301 301 300 300 300 299 299 298 298 298 298 299 299 299 300 301 301 301 301 300 299 300 301 301 301 301 301 301 300 298 297 298 298 298 298 298 299 299 299 299 299 300 300 301 301 301 301 302 302 302 302 301 302 304 305
309 310 310 309 308 308 308 306 306 305 306 306 306 306 306 305 304 304 304 304 305 306 306 305 305 305 304 303 303 302 301 301 300 300 300 299 299 299 298 298 297 297 297 297 298 298 298 299 299 299 299 298 299 299 300 299 299 299 299 298 297 297 297 297 297 298 298 298 298 298 298 298 298 298 298 298 298 298 298 299 300 301 301 301 302 304
309 309 309 308 307 307 306 306 306 306 306 306 306 305 305 305 304 303 303 303 303 303 304 304 303 303 303 303 302 301 301 300 300 299 299 299 299 299 299 298 298 297 297 297 297 297 297 297 297 297 298 297 297 298 298 298 298 298 298 297 297 297 297 297 297 297 297 297 297 297 297 297 297 297 297 297 298 298 298 299 300 301 302 303 303 303
308 309 308 308 307 307 306 306 306 306 306 306 306 305 304 304 303 302 302 301 302 302 302 302 302 302 302 301 301 301 300 300 300 300 299 299 299 299 299 298 298 298 297 297 296 296 297 297 297 297 296 296 296 296 296 296 296 296 297 297 297 297 297 297 297 297 296 297 297 297 297 297 297 297 297 297 298 298 297 298 299 299 300 301 302 302
307 307 307 306 307 307 306 306 306 306 306 306 306 305 305 304 303 302 301 301 301 301 301 301 301 301 301 301 301 301 301 301 301 301 300 300 299 299 299 299 298 298 298 298 298 297 297 296 297 296 296 296 296 296 296 296 296 296 296 296 296 296 296 296 296 296 296 297 297 297 297 297 297 297 296 296 297 297 297 297 297 297 297 297 298 298
306 306 306 306 306 306 306 306 306 305 305 305 305 305 305 304 303 303 302 302 302 301 301 301 301 301 301 301 301 301 301 301 301 301 301 301 300 300 299 299 299 299 299 299 299 299 298 297 297 296 296 297 298 298 298 298 298 299 299 298 298 298 297 298 298 298 298 298 298 298 298 298 297 297 297 297 296 296 296 296 296 296 296 297 296 296
307 306 306 306 305 305 306 306 306 305 304 304 304 304 304 304 304 304 303 303 303 302 301 301 301 301 301 301 301 301 301 300 301 301 301 301 301 300 300 300 300 299 299 299 299 299 299 299 299 298 297 297 298 299 299 299 300 300 300 300 300 300 300 301 300 300 299 299 299 300 300 300 299 299 299 299 299 297 297 296 297 297 297 297 297 297
307 307 307 306 305 305 306 306 306 305 304 304 304 303 303 303 303 303 303 303 303 302 302 301 301 300 300 300 300 300 300 300 300 300 300 300 301 300 300 300 300 300 300 300 299 299 299 299 299 299 299 298 298 299 299 299 299 299 299 300 300 300 300 301 301 301 300 299 299 299 300 301 301 301 301 301 301 300 299 298 297 297 298 298 298 298
Wind_Speed
11 8 8 9 10 12 13 13 14 11 6 7 7 5 8 8 6 6 4 3 2 5 8 9 11 12 12 15 12 10 13 15 16 14 12 13 18 21 18 14 12 11 11 12 13 14 16 16 16 16 16 17 18 18 19 21 24 25 24 22 21 19 19 21 22 22 21 21 19 19 19 16 13 14 13 14 13 11 13 13 11 11 11 11 11 10
10 8 10 12 13 13 12 12 13 8 4 7 9 7 8 8 8 7 5 4 4 4 8 9 11 13 13 13 12 11 12 13 17 17 14 16 19 16 14 15 15 13 12 13 14 15 17 17 17 17 16 17 19 19 20 24 25 24 24 21 20 20 20 22 23 22 20 19 19 19 19 15 13 14 13 14 13 11 12 12 11 11 11 10 10 10
8 9 11 13 13 11 7 6 8 6 6 8 8 9 8 7 10 7 6 5 6 4 6 9 10 11 13 12 13 14 12 12 19 20 17 20 19 17 18 16 18 14 14 14 14 17 20 19 19 18 18 18 19 21 22 24 24 24 23 20 20 22 22 23 23 21 20 19 20 19 18 15 15 15 13 13 13 12 12 13 12 10 10 9 8 9
7 9 13 15 10 8 6 5 6 7 8 9 8 9 8 9 12 6 4 6 6 5 8 10 8 8 10 11 13 16 15 14 19 22 21 21 19 21 24 16 19 16 17 15 16 19 22 21 21 20 20 20 19 22 24 24 24 24 23 22 21 22 23 24 23 21 20 21 21 19 17 15 15 15 13 12 12 11 11 12 11 9 8 8 7 8
9 5 8 12 8 8 9 9 9 7 7 10 11 10 9 11 13 6 4 5 5 8 9 9 8 7 10 12 12 14 16 15 16 20 23 23 21 21 24 18 22 24 22 19 19 22 24 24 24 22 22 21 22 24 27 26 25 23 22 22 21 21 22 22 21 21 21 21 20 19 17 15 15 15 13 12 12 12 12 10 9 8 8 8 8 8
12 3 4 7 8 9 11 9 11 9 7 9 11 13 13 12 12 7 7 7 6 9 10 11 9 7 11 15 15 13 14 16 16 18 20 24 24 22 23 20 22 27 24 21 21 23 24 24 24 24 23 23 24 26 28 28 25 22 21 22 21 19 19 19 19 20 21 19 19 19 16 15 15 15 14 13 12 12 12 9 8 9 8 8 8 8
10 7 8 8 8 11 13 10 12 11 8 8 9 12 13 11 11 10 12 10 7 8 6 9 9 7 9 12 13 13 14 16 16 15 18 22 23 23 24 22 20 25 22 19 19 21 23 23 24 25 26 27 27 26 25 24 24 22 21 20 20 18 18 18 19 19 19 18 18 16 14 15 15 13 13 12 11 11 11 10 9 10 10 8 8 9
8 7 8 10 11 10 11 9 11 12 9 9 6 6 9 10 11 12 12 10 8 9 4 6 9 9 8 8 7 9 13 15 14 14 17 20 21 22 23 23 21 23 23 21 21 22 24 24 24 26 26 27 26 23 22 22 23 24 22 19 18 18 17 16 18 19 18 17 17 14 13 14 14 13 12 11 10 10 10 10 10 9 10 9 9 9
9 10 8 10 11 9 9 9 11 12 10 9 4 2 6 9 11 11 10 9 9 10 7 8 10 8 8 8 7 9 12 12 13 14 16 18 22 23 23 25 22 19 25 24 23 24 26 26 25 24 24 23 23 23 24 24 23 22 21 21 19 18 15 14 17 18 16 15 15 14 13 13 13 13 12 10 11 10 8 9 10 9 9 9 10 9
8 11 10 10 10 8 9 9 8 9 9 9 3 4 8 9 10 10 9 9 9 10 10 10 10 8 8 8 8 10 12 11 11 11 7 7 12 16 16 20 24 21 25 24 21 22 24 25 23 21 18 14 13 17 18 16 18 17 16 17 16 15 14 13 15 15 14 15 15 15 14 14 13 13 12 11 11 10 9 9 11 11 10 10 11 10
5 6 6 8 10 9 10 10 9 10 10 6 2 6 10 9 9 9 7 8 8 9 11 13 15 11 8 8 5 3 3 5 5 2 4 7 6 7 9 13 21 21 19 20 18 18 17 16 15 14 13 12 19 13 8 6 10 15 13 10 10 13 14 14 15 15 16 17 15 15 16 15 15 14 14 13 12 12 11 11 11 11 10 10 10 11
6 7 5 8 12 12 11 12 11 11 11 7 5 7 9 7 8 7 7 7 7 8 10 14 17 13 9 7 2 3 4 3 3 3 4 9 10 10 11 15 18 12 14 14 14 14 13 12 10 9 10 11 14 8 6 6 9 17 17 12 10 14 15 17 17 17 19 18 16 17 17 17 16 15 15 14 13 13 13 12 12 11 11 10 10 10
10 9 9 10 13 14 10 9 9 9 9 9 8 8 8 7 7 7 7 7 7 9 9 10 11 10 8 5 1 4 5 7 6 6 7 9 11 14 14 17 19 10 13 14 12 13 14 13 11 10 9 11 11 9 15 13 16 25 25 18 16 16 16 18 19 19 21 19 18 18 18 18 18 16 15 13 13 14 13 13 12 12 11 11 11 10
9 10 12 11 11 13 12 8 8 8 9 10 9 8 8 7 6 7 7 7 7 9 9 6 4 6 7 1 6 8 7 6 5 6 5 6 9 14 15 15 17 11 12 15 13 14 16 14 13 11 10 10 8 11 18 17 17 22 26 24 21 19 18 18 20 22 23 21 19 20 20 20 19 18 16 14 14 15 13 13 13 12 11 11 11 11
9 8 11 12 10 13 15 13 10 8 10 11 10 9 9 7 6 6 6 6 7 7 8 7 5 7 6 1 8 8 6 4 4 6 3 3 5 9 11 12 13 9 9 13 12 12 14 14 13 10 10 9 6 10 17 18 18 19 22 24 22 21 20 19 20 24 25 23 22 22 22 22 21 19 17 15 16 16 14 13 13 12 11 10 11 11
11 8 9 14 13 14 16 15 14 10 9 9 9 10 9 8 7 5 5 5 4 5 5 6 6 4 2 3 5 6 6 7 6 6 5 2 1 3 5 9 11 9 8 10 11 11 12 14 13 10 10 10 9 12 16 17 19 19 18 20 20 19 20 19 21 25 26 25 24 25 25 25 23 21 19 17 17 18 16 14 13 12 10 11 11 11
9 7 7 13 14 13 14 15 15 12 7 5 8 10 9 9 8 7 6 5 4 6 6 6 6 3 5 3 3 6 6 7 6 5 7 5 2 2 0 5 7 8 9 9 9 10 11 14 13 9 9 11 13 15 16 16 18 17 18 20 19 19 20 21 22 26 27 26 26 27 26 26 26 23 20 18 18 19 17 14 13 12 11 11 11 12
6 6 6 11 12 11 13 15 16 15 11 5 6 7 8 9 7 5 6 6 6 8 7 8 10 6 4 3 0 4 5 7 6 6 6 6 6 7 7 3 2 4 7 8 8 9 9 11 10 9 9 11 12 13 14 15 16 16 18 19 18 19 22 23 23 27 29 27 28 28 28 28 27 24 21 18 17 19 17 14 14 13 12 12 12 12
5 6 6 11 12 11 12 12 12 16 17 12 6 5 5 7 6 6 6 6 7 7 6 9 10 4 1 2 2 1 3 6 5 5 6 6 10 10 8 6 3 4 6 7 8 8 7 6 6 9 12 11 12 12 12 13 14 15 16 17 17 18 23 24 23 27 29 28 29 30 30 30 28 25 23 19 17 18 17 15 14 14 13 13 12 13
5 6 5 9 10 10 10 8 8 10 14 13 10 7 6 6 5 5 5 5 7 7 6 9 8 1 4 3 4 2 3 5 4 4 5 7 12 14 9 6 5 6 6 7 8 7 6 6 6 8 11 12 12 12 13 12 13 14 15 16 16 17 21 23 23 25 27 28 30 31 31 32 29 26 24 21 19 18 17 15 15 14 14 13 12 13
5 5 5 7 9 9 8 8 10 9 10 11 9 8 8 6 5 5 4 4 7 6 5 7 5 3 3 3 3 4 3 4 4 3 4 9 14 16 16 15 13 12 10 10 8 6 6 5 6 8 9 10 10 11 11 11 12 14 14 15 16 17 20 23 23 25 27 29 31 32 33 33 29 27 25 22 20 19 17 16 15 15 14 13 12 12
5 6 6 6 7 8 9 11 13 12 10 10 9 10 10 8 6 7 6 6 6 6 6 6 1 4 3 3 3 3 3 4 6 5 7 13 16 17 17 16 15 15 14 12 10 9 8 5 5 7 7 7 8 8 9 10 11 14 14 15 17 18 20 22 23 24 27 29 31 33 35 32 28 28 25 23 21 20 18 16 16 16 15 12 12 12
5 5 8 7 6 8 8 9 9 7 8 10 9 8 9 9 8 8 6 5 5 6 8 6 3 3 2 3 4 5 5 8 12 11 11 15 17 16 15 14 13 14 13 12 11 10 8 6 3 4 5 5 6 7 8 9 11 14 14 15 16 18 21 22 23 24 26 29 31 33 34 31 29 29 26 22 22 20 18 17 16 16 15 13 13 12
5 4 7 8 7 6 3 6 7 6 8 9 8 8 9 9 8 6 3 4 6 5 6 6 3 3 2 2 5 7 8 10 13 14 13 14 15 15 15 13 12 11 11 12 11 10 9 8 7 4 3 4 5 6 8 10 11 13 14 15 15 17 21 23 24 25 25 28 31 32 32 30 30 30 26 23 22 21 19 17 16 15 14 13 12 12
6 6 7 8 7 6 5 8 9 8 9 8 8 9 9 9 11 7 3 2 6 6 6 6 2 4 5 4 7 8 8 10 13 14 14 14 14 14 13 12 11 10 10 11 11 10 10 10 10 8 4 3 2 4 6 9 12 14 13 12 14 17 20 23 24 24 24 28 32 32 31 32 31 29 27 24 22 22 20 17 16 14 14 14 13 12
6 6 7 7 8 7 7 6 4 4 8 8 8 5 4 9 13 8 4 6 7 6 7 6 1 4 6 6 8 8 8 10 12 13 14 14 14 13 12 11 10 10 10 10 10 10 9 9 10 8 6 4 1 2 4 7 11 14 14 12 14 18 21 22 23 22 25 31 34 31 29 30 28 25 25 23 22 22 19 17 16 14 13 13 13 12
2 4 5 6 6 4 3 3 3 4 5 4 5 5 1 9 11 7 7 6 4 3 3 4 3 7 7 7 8 8 8 8 9 11 12 13 13 13 12 11 10 10 10 10 10 10 9 9 10 8 6 3 2 1 3 6 7 9 13 12 12 16 19 20 20 21 26 32 34 30 27 28 27 24 23 22 21 21 19 18 18 15 13 12 12 12
3 6 6 6 6 4 2 2 4 5 4 4 4 6 4 7 8 6 5 2 3 4 2 4 3 8 7 7 7 8 8 7 8 11 11 11 12 12 12 12 12 11 11 11 11 11 10 9 8 6 4 1 1 3 5 6 6 2 10 9 8 12 15 16 16 20 28 32 31 28 27 27 27 25 23 22 20 19 19 18 17 15 12 12 12 11
5 5 4 5 6 2 4 4 3 3 2 1 2 2 3 0 1 1 2 4 3 2 3 4 5 7 7 6 6 7 7 7 9 10 10 10 11 12 13 13 13 13 12 13 12 11 10 9 8 7 5 3 2 4 7 9 7 2 4 6 8 12 14 14 14 19 26 31 31 28 25 26 27 26 24 22 20 19 19 18 17 15 13 12 12 11
3 2 2 6 6 0 2 3 4 1 0 4 6 7 5 5 6 7 7 7 5 6 7 8 8 8 7 5 6 6 6 7 9 10 10 11 12 13 13 14 13 13 12 12 11 11 10 8 7 7 6 5 4 4 6 8 6 2 2 4 8 11 11 13 17 20 22 24 26 25 24 26 27 26 24 21 19 20 20 18 17 16 14 12 11 10
3 1 1 3 5 4 3 3 3 1 1 5 11 12 10 8 7 7 8 8 5 6 8 8 7 6 5 5 6 6 6 8 10 11 12 12 12 13 13 13 13 12 11 11 11 11 10 8 7 6 6 6 6 6 5 5 3 1 1 3 6 9 9 14 20 22 19 18 19 20 20 23 25 25 23 21 19 19 19 18 17 16 15 14 12 11
3 2 0 1 5 5 5 5 5 4 3 7 12 14 13 10 8 7 8 9 7 4 4 5 3 3 4 5 6 6 8 10 11 12 12 12 12 13 13 12 11 11 10 11 11 11 10 9 8 7 7 7 6 6 6 4 3 5 7 8 10 11 13 17 21 21 18 18 20 19 19 20 23 24 22 20 20 20 20 20 19 18 18 17 15 13
1 2 2 1 4 4 4 5 5 6 6 3 8 10 10 9 8 5 7 9 10 8 2 2 3 5 6 5 5 7 9 11 12 12 11 11 12 13 13 11 10 10 10 9 10 10 10 9 9 9 8 8 8 8 9 9 7 9 11 12 12 13 16 18 20 20 19 20 21 21 20 20 22 25 23 22 22 20 20 22 22 20 18 16 14 13
2 1 1 1 2 3 4 5 5 6 5 1 4 7 7 8 8 6 7 8 9 8 6 6 7 7 6 6 7 8 10 12 12 12 12 11 11 11 12 11 10 10 10 9 8 9 9 9 9 10 10 11 13 13 13 14 13 12 13 14 13 14 17 20 21 22 23 23 22 21 20 20 21 23 24 24 23 20 20 21 20 19 17 14 13 13
2 2 1 0 1 1 4 6 6 5 2 2 4 8 8 5 6 6 6 9 10 8 7 8 8 7 8 10 10 12 13 14 14 14 13 12 11 10 11 11 11 11 11 10 9 9 9 9 10 12 13 14 15 15 14 14 14 13 14 16 15 14 16 19 22 23 23 23 23 22 20 19 19 20 21 21 20 19 19 19 17 14 12 11 12 12
1 0 1 1 2 3 4 5 4 3 4 4 3 8 9 5 4 4 4 8 11 9 6 6 7 7 9 11 11 12 13 14 16 17 14 12 12 12 11 11 11 12 12 11 11 10 10 11 11 11 12 13 13 14 14 15 14 14 15 17 17 15 15 15 17 18 18 19 21 21 19 17 17 18 19 19 18 16 15 17 16 11 9 10 12 13
2 1 0 2 4 4 3 3 4 6 5 6 4 6 7 4 4 4 2 6 10 9 6 5 6 7 8 9 9 9 9 9 12 15 14 12 12 12 12 12 11 13 14 14 16 16 15 15 15 13 12 11 11 13 15 16 16 16 17 18 19 18 16 16 17 16 16 16 16 17 17 16 16 17 16 15 16 16 16 17 16 14 13 12 12 12
0 2 2 2 4 4 5 6 4 5 3 6 6 6 6 3 3 3 1 3 7 9 8 5 6 7 6 8 8 5 2 2 5 9 12 12 12 13 14 13 13 15 18 18 20 21 20 20 20 18 17 14 13 13 15 16 17 17 19 20 20 19 19 18 18 18 16 16 15 15 15 15 15 16 15 14 15 15 15 14 14 13 13 12 11 11
4 2 2 3 4 2 3 4 3 3 4 6 7 8 7 3 1 3 2 2 6 9 6 4 4 6 7 6 4 2 3 1 3 6 9 11 14 16 17 16 16 17 18 18 19 20 20 20 20 21 21 20 18 16 16 18 19 19 21 23 22 22 22 20 20 20 19 18 17 16 16 15 15 15 16 16 15 14 13 12 11 11 11 10 10 11
4 1 1 4 3 2 4 4 4 4 4 7 9 8 7 2 2 3 2 3 7 9 3 3 3 6 7 3 4 6 5 2 5 8 8 9 12 15 18 18 18 17 17 17 16 17 17 18 18 19 21 22 20 18 17 19 20 22 23 24 24 23 23 22 20 20 19 19 19 18 17 16 16 15 15 15 14 13 12 11 10 10 9 9 9 10
1 1 2 1 2 5 7 6 5 4 4 10 11 7 7 3 4 1 2 2 8 8 3 4 4 7 5 3 5 6 7 10 13 13 10 9 10 13 16 17 17 17 17 17 16 16 16 17 17 18 19 20 20 19 18 18 20 22 21 22 24 24 21 20 19 18 18 18 18 17 17 16 16 16 15 14 13 12 11 10 9 9 9 9 8 8
2 2 2 3 1 2 6 7 6 5 7 15 12 7 8 5 2 2 5 5 7 4 5 6 6 6 4 7 9 12 14 17 16 13 10 9 10 11 12 13 15 16 15 14 15 15 15 16 16 17 18 17 17 18 18 18 19 21 20 20 22 21 18 16 16 16 16 16 16 16 15 14 14 14 15 14 13 12 11 10 9 9 9 8 8 7
4 3 3 5 4 2 5 6 4 3 8 18 12 5 8 7 1 2 6 6 7 9 8 8 8 7 9 11 14 15 16 16 14 12 11 10 10 10 11 13 15 16 15 14 13 12 12 13 14 15 17 16 15 15 16 16 17 18 18 19 19 18 16 15 14 14 14 14 14 14 13 12 12 11 11 11 11 10 9 9 8 7 7 6 4 3
7 4 3 5 5 3 4 5 4 2 7 14 11 6 7 7 3 2 4 6 11 11 10 11 11 11 13 15 15 15 15 15 14 13 12 11 11 12 13 15 16 16 16 15 14 13 12 12 13 14 15 15 14 14 14 14 15 16 17 17 15 14 13 13 12 11 12 12 11 11 10 10 9 9 9 8 8 7 7 6 5 4 4 4 3 2
8 8 9 9 8 8 7 6 5 6 8 12 12 10 9 8 7 6 6 9 11 11 11 13 14 14 15 16 16 16 15 15 15 13 12 12 12 11 13 14 15 16 16 15 15 14 13 12 13 13 14 15 15 15 15 14 15 16 17 17 15 14 13 12 11 11 11 11 10 10 10 9 7 6 7 6 6 6 6 5 5 3 3 3 3 3
9 11 12 10 10 13 13 10 9 10 12 13 13 12 11 10 9 9 9 10 11 11 12 14 16 17 16 16 17 17 16 16 15 13 12 11 10 10 11 12 12 13 14 14 14 13 12 11 12 13 14 14 15 15 15 14 14 16 16 15 14 14 13 13 12 12 12 12 11 10 9 9 8 7 7 6 6 6 6 6 6 5 5 4 3 3
9 10 9 7 7 8 8 9 11 12 13 14 14 14 13 12 10 10 10 11 11 12 13 16 18 19 19 19 19 18 16 15 14 12 11 10 9 9 10 10 10 11 11 12 13 12 11 11 11 11 12 13 14 15 14 14 15 15 15 14 13 13 12 12 12 13 13 12 12 11 10 10 10 9 8 8 8 6 6 7 6 5 5 5 4 4
6 7 8 9 10 8 8 10 13 15 15 15 15 15 14 14 13 11 11 12 12 14 15 17 18 19 19 19 17 15 14 12 11 11 10 10 9 8 8 8 8 7 7 9 10 10 10 11 11 12 13 13 14 13 13 14 15 15 14 13 13 12 12 12 11 12 12 12 11 12 11 10 10 10 9 8 8 7 6 6 5 4 3 3 3 4
6 6 8 11 11 9 10 11 12 13 14 15 16 16 16 15 15 15 14 14 15 16 17 17 16 16 17 17 15 14 12 10 10 10 10 10 10 9 7 7 6 5 5 6 7 7 8 9 10 10 12 12 12 11 11 12 13 13 13 12 12 12 12 12 12 11 11 11 10 11 11 10 10 10 10 9 8 8 7 7 5 5 4 4 3 2
7 5 5 7 7 6 7 7 7 7 9 11 13 15 15 15 16 16 16 16 16 16 17 17 16 16 16 16 15 14 13 12 12 13 13 11 9 8 7 6 5 5 4 4 5 6 6 7 8 8 9 9 9 9 10 10 10 11 11 10 10 10 10 10 10 10 10 9 9 10 10 10 10 10 10 9 8 8 9 9 8 7 7 6 5 4
10 6 3 5 7 8 8 9 8 9 11 12 12 13 13 14 15 15 15 15 14 14 15 15 16 16 15 15 14 14 14 13 12 12 12 11 9 7 5 4 4 4 4 4 5 5 5 5 6 6 6 7 7 8 8 8 9 10 10 10 10 10 10 9 8 8 9 9 9 11 10 8 8 9 8 7 7 7 8 9 9 9 9 8 7 6
Wind_Direction
193 205 210 215 221 213 215 224 240 260 300 300 276 240 248 251 237 224 189 167 200 250 246 241 250 251 246 252 243 208 205 211 221 228 211 206 215 213 202 179 178 190 197 204 194 191 196 191 189 188 190 192 192 197 195 195 203 207 208 207 203 200 203 210 207 205 206 207 208 210 212 213 209 209 209 207 202 200 204 196 193 200 192 198 203 195
195 220 222 216 227 225 223 225 240 274 293 261 266 256 242 245 247 226 177 187 210 235 254 247 247 251 247 252 255 231 213 210 221 223 210 218 229 232 215 178 173 187 195 203 191 191 202 195 191 186 184 192 192 194 200 206 209 208 208 204 200 200 205 212 210 208 208 206 210 211 209 208 203 204 207 206 201 204 208 195 195 203 195 200 206 199
202 229 230 223 227 229 240 233 222 243 254 250 254 254 249 240 245 228 155 196 233 236 255 252 249 251 245 244 251 247 230 215 224 224 217 222 222 232 235 186 162 187 201 202 197 198 205 200 196 193 189 194 196 198 206 212 214 213 208 203 205 205 208 213 209 211 215 211 213 211 205 203 201 203 206 208 206 210 213 201 200 206 199 203 202 194
211 223 224 224 217 209 218 218 216 224 238 248 245 245 246 241 248 241 185 214 227 239 262 268 263 255 251 243 242 244 235 221 222 222 221 226 219 220 230 194 156 188 208 202 202 204 207 203 199 199 197 197 197 202 209 213 214 214 210 205 205 201 203 209 206 210 216 214 212 208 204 202 201 202 204 208 208 212 217 209 203 203 199 198 193 190
239 230 211 211 187 186 206 203 215 228 230 232 237 248 249 249 257 251 218 226 222 233 244 262 270 253 246 243 238 238 232 223 224 225 220 224 226 225 231 210 169 185 205 201 200 207 208 203 200 201 202 201 202 208 214 214 211 210 210 207 201 196 198 201 203 205 207 210 208 202 201 200 196 197 200 202 203 209 214 208 200 197 193 190 191 189
244 213 155 196 174 190 217 210 212 223 239 231 224 238 248 261 271 261 247 250 247 246 225 222 246 249 234 234 232 227 224 220 220 227 223 220 223 225 233 223 180 178 195 198 199 206 207 205 203 202 203 204 206 214 218 220 217 212 210 207 200 198 195 194 200 202 201 206 206 200 198 196 190 193 197 196 198 206 205 197 193 191 183 181 189 184
241 184 159 205 201 208 223 221 214 213 237 247 223 227 239 256 266 256 253 253 250 267 238 205 233 264 245 235 227 220 224 221 211 220 230 224 221 222 228 228 198 177 185 202 204 207 211 209 206 204 206 208 209 214 219 221 220 214 207 201 197 198 197 196 199 201 202 204 204 200 198 193 188 192 196 193 198 203 196 190 191 185 175 179 193 186
234 198 176 212 215 217 224 220 215 211 227 246 232 223 232 243 250 245 246 249 249 263 254 194 231 267 264 251 227 216 232 231 212 214 228 227 224 225 226 232 220 183 182 208 209 210 217 212 209 210 209 210 209 210 213 212 210 210 206 196 196 200 197 195 190 189 196 201 199 193 189 190 189 193 193 188 199 202 192 186 183 179 174 180 192 190
201 212 200 206 213 217 219 219 212 208 229 247 236 221 246 249 250 245 240 242 246 253 247 215 227 253 260 257 231 215 231 236 227 222 222 224 225 226 225 232 232 188 173 193 200 208 218 216 214 212 211 215 214 209 206 204 203 206 200 190 193 198 190 187 184 183 191 198 193 183 185 194 193 194 192 191 200 195 189 185 172 167 173 181 186 185
184 211 208 202 214 220 218 225 208 192 223 252 239 213 246 253 249 247 244 243 241 244 252 241 232 241 253 255 238 223 221 223 236 234 227 236 233 236 237 235 237 211 178 176 189 206 215 217 216 214 217 212 193 194 195 195 201 201 185 174 186 194 187 188 186 183 191 197 192 181 186 196 190 186 188 194 195 183 189 188 170 166 173 184 186 185
154 164 209 216 222 227 223 228 218 201 220 253 256 225 235 237 237 241 241 249 250 238 243 249 244 243 251 257 260 269 229 217 243 265 358 344 319 279 277 263 250 226 183 167 183 201 206 214 219 215 203 139 105 110 123 136 193 195 177 165 187 199 198 200 193 184 187 193 194 187 186 186 180 183 187 187 184 181 190 186 172 171 174 180 186 190
189 163 206 223 224 230 229 226 218 209 219 231 233 234 234 223 223 230 226 233 247 245 240 245 244 237 239 250 256 55 54 45 23 43 358 334 330 308 288 273 259 217 169 177 190 193 195 201 200 192 180 131 96 106 167 174 168 164 162 168 194 204 204 206 200 189 186 189 192 188 184 180 177 187 189 181 181 185 188 182 174 172 174 177 183 191
213 203 204 201 213 224 226 222 208 201 215 222 223 230 234 224 216 225 228 218 227 245 249 252 249 236 237 257 87 98 67 36 22 38 12 334 311 289 271 261 258 214 174 205 204 179 183 182 170 163 144 111 97 146 182 178 150 151 160 173 195 201 199 205 202 193 188 188 189 185 182 179 179 188 189 182 186 187 185 183 178 176 177 177 180 185
211 205 201 197 201 208 218 221 199 194 208 214 216 222 227 224 217 226 235 229 231 241 239 240 259 243 240 290 63 73 62 30 18 56 34 306 263 254 252 248 250 227 181 200 200 175 173 165 162 173 155 126 120 157 171 168 157 162 167 176 192 193 191 200 200 191 187 186 187 182 179 179 180 186 184 181 189 187 185 187 183 182 181 179 182 180
219 208 198 204 193 185 206 225 219 206 204 209 218 227 231 231 231 238 241 238 244 245 220 202 223 247 245 81 77 86 101 94 49 67 77 264 219 224 240 228 225 217 172 178 179 168 168 161 163 177 165 161 185 175 168 170 177 179 171 173 187 191 189 194 193 190 187 185 183 178 178 179 180 183 175 178 193 188 185 190 187 185 182 180 181 175
229 227 194 203 204 189 198 220 233 233 214 204 213 226 233 230 232 249 267 279 292 280 237 208 227 241 155 104 96 98 101 99 86 74 78 46 273 211 210 191 187 182 165 167 164 166 174 167 165 171 162 167 179 170 169 176 181 182 174 173 185 190 188 189 189 188 186 185 181 177 179 178 177 180 174 178 194 190 184 189 186 184 181 178 176 173
225 234 191 194 207 203 200 210 225 239 238 206 209 223 228 227 237 250 251 257 267 266 259 238 240 194 144 168 118 97 80 80 89 83 81 75 23 350 119 166 171 164 160 167 165 166 172 166 160 158 158 169 174 168 172 178 179 180 174 173 183 191 190 188 189 185 183 183 180 177 181 176 171 178 178 181 194 191 184 184 182 182 179 173 172 175
229 243 197 191 205 207 211 216 215 223 236 233 221 225 224 226 240 255 244 231 226 242 250 243 243 225 178 214 109 93 82 77 78 72 70 79 73 34 1 353 67 107 126 138 138 139 152 158 159 164 168 176 174 169 173 177 178 178 176 177 184 191 190 187 185 183 181 181 178 178 180 173 168 176 178 180 193 191 183 178 178 179 174 171 174 179
231 246 198 199 214 199 202 222 215 211 220 230 247 251 239 235 224 216 229 234 232 236 242 241 243 253 44 89 121 59 60 77 83 86 75 69 79 64 12 338 11 77 96 103 106 109 119 129 147 168 174 174 171 170 172 173 174 176 180 182 184 189 189 182 179 181 182 179 178 179 180 173 169 175 177 177 186 186 179 177 177 175 174 175 178 180
218 252 206 199 215 190 181 215 218 201 207 225 247 248 241 251 241 225 230 238 240 239 239 245 239 180 52 70 125 100 60 76 84 98 94 77 83 82 59 21 40 67 68 74 83 81 84 102 125 148 157 160 164 170 172 173 178 183 185 185 184 186 186 181 177 180 182 179 178 179 179 175 173 175 176 176 182 182 176 177 176 173 177 179 178 178
199 244 226 194 198 188 181 205 214 206 198 209 229 230 226 236 240 237 238 250 259 257 246 250 244 122 71 25 88 99 87 92 86 88 85 70 69 69 57 42 42 49 51 59 62 50 56 90 119 130 147 163 167 170 176 178 182 187 188 185 184 183 182 180 179 181 181 179 180 179 176 176 175 174 174 175 181 181 176 176 178 178 178 178 177 176
203 227 230 206 192 206 211 205 211 219 214 208 213 222 226 228 233 233 224 224 240 257 257 244 206 84 57 13 43 82 85 71 59 57 72 65 60 61 54 43 39 39 42 47 42 35 44 63 109 134 151 173 172 168 181 189 190 196 195 185 181 181 179 179 180 182 179 178 180 178 174 175 175 175 176 177 181 182 177 177 183 183 178 177 180 176
210 225 230 223 208 221 217 196 205 228 236 233 229 229 228 225 235 243 241 242 245 267 280 254 179 104 44 4 38 67 72 61 50 53 71 69 61 59 54 43 36 35 36 36 32 32 38 40 63 143 150 163 176 179 191 203 202 201 199 190 185 181 177 179 181 180 178 178 179 177 174 174 173 176 178 178 181 182 178 180 186 183 177 178 183 178
199 233 233 228 228 233 202 173 197 220 231 238 240 238 235 233 238 237 238 294 282 280 294 274 218 140 127 86 68 71 72 65 55 51 59 67 66 62 55 46 37 35 36 32 28 29 33 39 40 41 115 151 181 191 197 211 213 207 203 195 190 184 179 179 180 178 178 179 177 175 175 173 173 177 178 177 180 180 177 180 183 179 176 179 181 178
181 227 226 221 230 234 215 198 199 208 218 228 235 239 246 250 249 236 167 231 261 247 243 259 252 114 131 130 97 86 81 71 61 53 50 55 61 61 58 54 47 44 44 37 33 35 37 46 49 49 75 115 205 217 210 210 204 201 200 190 184 184 180 180 180 176 175 178 176 174 175 174 174 176 174 173 179 179 175 176 176 174 177 179 179 178
196 231 230 230 234 229 230 213 181 211 227 221 218 230 291 274 260 258 229 225 247 249 246 267 309 108 120 112 96 82 79 74 64 59 56 53 55 57 56 56 52 50 49 44 41 38 38 40 43 57 84 93 126 216 235 232 217 206 196 181 180 183 179 180 181 173 171 177 178 177 178 177 176 174 170 170 178 178 171 170 170 169 174 178 178 179
249 254 245 259 263 243 267 333 352 290 275 255 209 168 274 275 267 271 256 243 272 284 288 354 73 135 127 94 79 61 59 68 62 57 56 52 54 56 53 52 52 49 45 41 35 29 30 33 34 49 71 74 89 156 258 275 275 231 195 174 177 183 179 177 175 171 175 181 181 178 178 177 176 175 172 171 175 175 170 171 170 165 165 170 174 177
247 241 226 249 264 230 166 23 331 310 338 326 247 174 176 252 256 251 250 277 317 268 257 37 104 145 116 69 62 50 44 53 55 53 52 52 55 55 52 50 49 46 40 35 30 24 22 24 28 42 48 7 272 284 289 317 347 219 182 174 180 181 176 170 158 160 174 181 181 180 179 178 177 175 173 173 173 173 174 177 173 163 161 164 168 173
252 242 208 226 248 219 110 92 25 337 34 68 260 159 125 254 343 0 11 34 358 276 136 142 172 141 101 69 60 47 35 42 53 56 55 56 59 58 54 50 46 43 39 34 30 25 20 18 17 28 34 10 318 306 315 338 3 49 186 200 194 178 168 158 148 159 174 180 182 181 180 180 178 174 173 174 172 172 174 176 171 161 159 162 161 164
309 257 220 236 238 165 73 101 89 27 257 90 46 20 34 57 57 49 35 36 50 74 101 132 136 106 80 67 64 50 42 52 56 59 58 56 59 60 57 51 45 43 41 36 30 25 22 17 6 9 24 25 16 8 349 350 2 358 268 235 197 182 164 145 148 164 176 178 178 177 177 178 177 173 171 169 167 169 170 171 169 161 156 157 156 158
351 213 172 260 247 223 222 203 118 56 279 77 48 22 18 30 39 43 31 23 43 89 113 125 117 95 76 70 74 66 61 62 56 52 51 50 54 59 59 53 47 44 41 35 30 27 24 22 11 6 18 31 39 43 26 13 33 103 210 189 179 181 162 138 146 162 171 166 162 163 168 172 173 172 169 162 161 165 167 168 166 158 155 156 157 155
317 280 55 280 255 229 198 197 189 188 163 84 49 23 16 18 19 39 45 28 18 37 130 145 120 103 106 93 86 77 65 60 53 46 46 47 51 57 59 54 48 43 40 35 32 30 26 27 32 32 30 37 52 65 63 65 103 127 134 138 146 155 151 143 148 158 163 160 156 154 157 163 170 173 170 162 161 164 167 167 163 161 163 167 167 163
275 280 279 274 266 238 175 167 181 193 192 112 38 10 7 15 12 37 61 40 19 13 28 105 64 86 118 117 97 79 63 55 49 42 40 43 49 55 57 55 50 44 42 39 36 35 32 31 41 50 54 61 71 81 81 81 95 116 128 135 140 144 145 146 149 150 150 157 162 162 162 166 171 175 174 171 168 167 166 165 165 169 174 175 175 174
151 220 281 347 269 227 160 145 168 203 211 157 33 4 2 13 14 31 52 37 24 29 48 73 79 86 98 90 76 71 64 60 56 48 43 44 49 54 55 54 52 48 45 45 44 44 42 42 52 65 74 79 82 87 88 84 85 98 116 132 142 144 143 144 146 144 142 146 153 158 164 168 170 174 179 182 182 177 170 168 167 168 170 174 177 176
150 195 219 80 269 218 156 167 194 207 182 100 42 7 360 5 16 37 63 46 31 31 51 77 89 83 83 88 87 82 76 70 64 55 49 48 51 54 55 53 54 56 53 51 54 58 57 61 74 84 88 89 87 86 87 87 92 99 108 120 130 135 138 140 141 142 140 139 143 149 158 167 170 175 181 182 183 180 174 174 175 169 166 178 184 178
115 131 192 199 209 193 188 197 190 145 97 94 57 7 0 358 7 26 78 52 27 12 31 73 92 93 99 107 104 99 95 81 66 54 48 51 55 58 62 59 59 62 59 56 63 69 71 78 87 94 98 101 99 97 95 94 98 104 107 114 120 123 129 131 130 133 138 141 145 148 151 158 164 172 177 177 179 180 178 183 194 206 216 220 218 210
124 106 116 207 204 179 142 97 123 144 107 66 38 7 6 357 343 343 61 50 24 7 19 69 104 107 107 113 115 121 119 93 65 48 42 51 60 64 67 66 65 70 71 73 80 83 86 92 95 96 98 102 107 109 108 105 104 107 109 111 115 118 121 118 113 117 129 138 142 143 143 148 156 164 171 175 177 179 182 190 202 215 223 225 223 218
277 202 154 193 218 190 141 122 139 165 107 43 18 11 17 358 305 299 272 59 31 14 17 57 105 110 115 124 125 136 167 93 65 45 41 52 64 72 76 75 76 82 84 86 90 91 92 95 97 96 94 94 98 104 109 111 112 112 110 107 108 111 112 111 107 108 116 123 125 125 127 133 142 148 152 156 158 161 168 177 185 191 196 199 200 203
319 256 199 243 250 233 165 149 121 101 75 25 2 2 7 10 210 247 234 101 27 9 22 74 108 119 130 131 110 8 319 346 95 71 60 65 72 79 85 84 85 89 90 89 90 91 91 93 97 99 98 94 93 97 105 110 110 108 106 104 104 104 103 103 105 107 110 114 115 115 115 119 127 132 135 137 139 141 145 155 166 177 184 190 196 204
299 207 207 267 243 123 105 102 77 81 62 8 351 349 358 14 196 240 211 91 4 350 29 102 125 135 134 108 31 4 354 50 116 115 99 81 75 81 87 86 85 86 87 88 89 90 91 93 94 96 98 98 97 98 101 104 104 102 103 104 103 100 99 99 101 103 106 109 111 112 113 116 123 126 126 128 130 132 136 145 157 166 173 181 188 196
309 95 122 196 155 114 114 107 88 96 44 357 343 346 357 324 226 266 40 353 327 335 56 107 135 143 130 53 48 54 66 96 116 121 112 92 83 85 86 87 86 84 83 84 86 88 91 93 89 86 88 95 100 102 101 101 102 101 102 104 102 99 100 101 102 103 103 105 107 109 111 115 120 123 124 126 130 132 136 143 151 153 158 168 175 180
339 335 98 100 46 84 113 108 104 108 33 355 341 350 2 337 230 34 3 314 322 4 96 116 132 132 76 62 92 103 103 107 112 115 108 97 90 85 81 83 85 84 82 80 80 81 82 85 84 81 81 85 93 99 100 101 100 99 100 100 97 97 100 104 106 107 107 109 111 113 114 118 121 124 126 129 134 136 135 137 140 140 145 156 164 168
350 317 81 63 17 38 95 84 92 111 16 359 353 4 12 8 39 357 335 347 34 60 83 87 89 90 78 88 106 111 110 109 107 104 100 92 87 84 82 82 82 83 83 81 78 79 80 81 81 79 79 80 83 90 96 98 98 98 97 94 91 94 100 101 103 109 111 113 115 116 119 121 123 126 129 131 136 139 139 140 141 142 150 154 152 164
360 345 64 48 6 12 68 63 54 47 9 9 21 45 31 24 36 5 356 37 55 63 72 70 70 83 95 104 109 107 106 105 101 100 99 93 90 87 82 80 78 77 78 77 75 74 76 81 83 83 82 81 82 85 88 91 96 96 94 91 88 89 94 96 98 103 104 106 110 111 113 118 123 129 131 132 136 139 141 146 146 149 157 146 122 113
38 57 77 67 52 59 74 87 82 58 39 36 43 52 51 47 51 59 64 62 60 67 81 85 87 94 100 104 105 102 101 100 98 98 95 90 87 82 77 76 75 73 72 72 71 69 67 69 73 78 78 74 74 77 77 79 85 87 87 87 85 83 85 89 95 98 99 102 105 106 105 104 106 114 119 120 125 127 126 124 118 107 99 101 113 122
89 92 90 87 92 88 79 82 86 73 64 61 57 54 56 57 59 68 75 71 68 78 95 103 104 104 104 105 102 100 99 99 97 94 90 87 83 78 76 75 73 72 71 69 70 71 68 65 65 70 74 74 72 72 72 72 76 77 76 75 73 72 72 72 76 82 86 90 93 96 102 104 101 99 101 102 101 104 111 107 98 96 95 85 78 82
95 87 86 92 105 100 81 77 81 74 70 72 68 62 61 62 65 72 78 80 81 85 95 104 104 102 102 102 101 102 103 102 99 95 90 86 83 80 77 74 73 73 70 68 71 74 74 73 71 71 76 80 80 79 79 77 74 72 72 71 68 66 65 62 60 63 65 70 75 78 82 89 93 94 97 101 99 100 110 108 102 111 130 132 128 119
77 66 71 78 83 91 100 98 89 78 71 69 67 66 67 68 72 79 84 90 92 91 95 100 99 98 99 99 100 105 109 106 109 116 112 101 92 85 78 76 76 72 65 65 68 71 74 78 80 81 81 79 76 78 79 77 72 66 63 64 67 68 68 67 64 61 60 61 66 70 72 75 81 83 82 83 84 87 95 99 96 99 114 131 145 155
97 91 88 91 94 101 109 110 104 91 78 69 68 73 75 76 80 84 87 91 96 98 99 99 97 98 102 103 103 104 99 88 92 108 116 115 111 103 93 88 84 76 70 65 61 61 65 68 72 78 80 75 70 68 65 62 61 57 51 50 53 55 56 56 53 53 57 58 61 64 64 68 75 78 76 74 73 75 80 81 79 76 73 76 88 112
84 102 112 111 106 100 108 118 118 98 83 78 78 80 82 84 87 89 90 91 95 100 103 102 102 104 109 112 114 111 103 95 92 95 97 98 99 101 102 101 93 83 81 81 75 70 65 60 57 61 64 65 65 66 63 57 55 55 51 48 44 41 43 45 42 41 43 49 61 63 55 55 63 65 63 65 64 64 70 73 75 76 72 70 74 74
47 41 54 96 95 90 99 108 103 95 94 93 90 86 86 88 88 87 89 91 94 101 105 106 107 110 113 118 123 121 114 108 103 100 98 92 86 85 87 87 85 88 91 90 88 85 79 73 69 63 60 60 59 59 60 58 53 50 48 44 40 40 42 44 45 42 35 38 61 71 60 51 57 58 54 57 57 53 49 47 49 59 66 69 72 74